Погода в Паканбару

Индонезия     0°31′01″N   101°26′29″E
темп.,
°C
ветер,
м/с
пор.,
м/с
влажн.,
%
обл.,
%
осадки,
мм/ч
давл.,
гПа
погр.,
м
2 марта, вт
вт201:00+24с119673 0.5 101224
04:00+23в009895 0.0 101023
07:00+23сз119665 0.0 101243
10:00+31св126354 0.0 1013888
13:00+35с124651 0.1 10101630
16:00+31ссв236061 0.8 1007806
19:00+26з008431 1.7 100924
22:00+25зсз008615 0.0 101124
3 марта, ср
ср301:00+23ююв119241 0.9 101225
04:00+23юв159520 0.0 1011153
07:00+23ю269641 0.0 1013322
10:00+30юв126183 0.0 1014856
13:00+33всв124991 0.1 10111547
16:00+30юз2361100 0.0 1007588
19:00+25ююв118693 0.0 100924
22:00+25ю128996 0.0 101229
4 марта, чт
чт401:00+23в129385 0.0 101235
04:00+23ю119610 0.0 101123
07:00+23юв11929 0.0 101378
10:00+31св126037 0.0 10131016
13:00+35св124558 0.1 10101727
16:00+35всв223816 0.0 10072317
19:00+29ююз116735 0.0 100930
22:00+26всв127997 0.8 101128
5 марта, пт
пт501:00+24вюв128759 0.9 101224
04:00+23в119324 0.0 101023
07:00+24вюв119222 0.0 101257
10:00+30всв126582 0.3 1013918
13:00+29юв117990 6.0 1010430
16:00+32ссз115789 2.3 10071122
19:00+27в118095 2.6 100924
22:00+24всв129162 0.3 101128
6 марта, сб
сб601:00+24в119381 0.5 101124
04:00+23всв0198100 2.9 101023
07:00+24ю1198100 4.4 101274
10:00+25ююз0195100 0.0 1013139
13:00+26ююз1291100 1.6 1010169
16:00+28зсз1287100 2.5 1008194
19:00+25з1194100 2.9 100925
22:00+25ююз1193100 1.6 101224